Location: Borojevi?i
(45.0486°N, 16.2297°E)
Time: 20:48:16
(UTC+00:00)

Meteor 2-4 Rocket - Pass Details

Date: 08 August 2020
Orbit: 798 x 909 km, 81.2° (Epoch: 21 September)

Event Time Altitude Azimuth Distance (km) Brightness Sun altitude
Rises 21:09:41 0° 349° (N) 3,472 8.1 -24.1°
Reaches altitude 10° 21:12:10 10° 351° (N) 2,513 7.1 -24.3°
Maximum altitude 21:17:53 84° 79° (E) 855 3.6 -24.8°
Enters shadow 21:18:40 67° 155° (SSE) 911 3.5 -24.9°
